Showing default

GSAT 18, 41793

Orbit data source: Space-Track

GSAT 18, 41793 is a payload satellite owned by ISRO (IN) in GEO that was launched on Wed, 05 Oct 2016 UTC via an ARIANE 5ECA launch vehicle from the French Guiana (FRGUI). Payloads include a variety of satellites, spacecraft, and rockets equipped with specific instruments for various scientific and technological missions. These include communications satellites like Starlink; space stations such as the ISS; scientific satellites like the Hubble; Earth observation satellites from companies like Planet Labs, Umbra, and HawkEye 360; GPS; miniature CubeSats for education and research; and military/defense satellites.

Not visible in the next 10 days
GSAT 18 details
Identifier
41793, 2016-060A
Orbit
GEO
Last TLE update22 hours ago
Origin
Flag of INISRO (IN / IND)
ManufacturerISRO SAC/Banga
MissionOperational Civil Communications
Bus & MotorI3K, ISRO LAM
Mass3,404 kg wet, ~1,200 kg dry
Launch date (UTC)
2016-10-05 (8 years ago)
Launch vehicle
ARIANE 5ECA
Launch site
French Guiana (FRGUI)
Object type
Payload
Rocket body
Debris
Shape & HBRBox + 2 Pan, 15.5 m
Radar Cross Section13.026 m²

Expand to show TLE details & history

TLE from 22 hours ago
0 GSAT 18
1 41793U 16060A   24346.03660010 -.00000061  00000-0  00000-0 0  9990
2 41793   0.0448 115.0629 0003428 129.9217 282.4442  1.00270983 29988
Epoch: 2024-12-11T00:52Z
Definitive object data (Epoch: 2024-12-11T00:52:42.248Z)
Latitude0.02526°
Longitude73.96054°
Altitude35,783.208 km
Speed3.075 km/s
True Right ascension11h 09m 29s
True Declination0° 01' 31"
Sunlit
Object was in daylight at TLE epoch
Visualization TLE readout
Latitude0.02705°
Longitude43.88074°
Altitude35,790.735 km
Speed3.074 km/s
Apparent Right ascension09h 09m 33s
Apparent Declination-4° 55' 09"
Sunlit
Object is in daylight
Visualization observer readout
Local Sidereal Time21:12:51
Azimuth1.433° NNE
Elevation-54.995°
Doppler factor1
Orbital elements
Apogee altitude35,802.345 km
Perigee altitude35,773.436 km
Semi-major axis42,166.027 km
Eccentricity0.0003428
Inclination0.0448°
RAAN115.0629°
Arg. of periapsis129.9217°
True anomaly282.40584°
Mean anomaly282.4442°
Eccentric anomaly282.42502°
Mean motion0.25067 °/min
BSTARUnknown
Orbital period1436.16 mins
Loading historical data...
41793 neighbors
Authenticating...
Loading maneuver chart data...
Loading historical data...
Loading historical data...
Loading historical data...
Loading historical data...
Loading historical data...
Loading historical data...
Loading historical data...
Other satellites on launch #60 in the year 2016 (2016-10-05 UTC)

GSAT 18 Visibility forecast

Observer location: undefined°, undefined

GSAT 18 is not visible in the next 10 days
Span
Click to sort rows by Start time (UTC) header in descending order
Start Az.
Max El. time (UTC)
Max El. Az.
Max El.
End time (UTC)
End Az.
|